Regional Weather Roundup
Issued by NWS

Home | Current Version | Previous Version | Text Only | Print | Product List | Glossary On
Versions: 1 2 3 4 5 6 7 8 9 10 11 12 13 14 15 16 17 18 19 20 21 22 23 24 25 26 27 28
000
ASUS44 KBMX 080310
RWRAL

ALABAMA REGIONAL WEATHER ROUNDUP
NATIONAL WEATHER SERVICE BIRMINGHAM AL
900 PM CST WED DEC 07 2016

NOTE: "FAIR" INDICATES FEW OR NO CLOUDS BELOW 12,000 FEET
WITH NO SIGNIFICANT WEATHER AND/OR OBSTRUCTIONS TO VISIBILITY.

THE REMARK "TC" DENOTES TEMPERATURE IN DEGREES CELSIUS.

ALZ001>011-014-016>018-020-080400-
NORTH ALABAMA

CITY           SKY/WX    TMP DP  RH WIND       PRES   REMARKS
MUSCLE SHOALS  CLOUDY    42  35  76 NW5       30.21R
HUNTSVILLE     CLOUDY    43  35  73 NE5       30.15F
DECATUR        CLOUDY    41  37  86 CALM      30.17F
HALEYVILLE     FAIR      39  36  89 N3        30.20R
GADSDEN        MOCLDY    45  37  73 NW6       30.17S
$$

ALZ012-013-022-023-030>036-040>044-080400-
WEST CENTRAL ALABAMA

CITY           SKY/WX    TMP DP  RH WIND       PRES   REMARKS
TUSCALOOSA     CLOUDY    48  42  80 N6        30.20R
$$

ALZ015-024>027-033>036-040>044-080400-
CENTRAL ALABAMA

CITY           SKY/WX    TMP DP  RH WIND       PRES   REMARKS
BIRMINGHAM     CLOUDY    45  39  79 N6        30.18S
MONTGOMERY     CLOUDY    53  44  71 W7        30.17R
SHELBY CO ARPT CLOUDY    49  42  77 VRB5      30.16R
MAXWELL AFB    CLOUDY    52  46  80 NW6       30.16R
GREENVILLE     CLOUDY    53  44  71 N7        30.15S
$$

ALZ019-021-028-029-037-038-045>048-080400-
EAST CENTRAL ALABAMA

CITY           SKY/WX    TMP DP  RH WIND       PRES   REMARKS
ANNISTON       CLOUDY    47  38  71 W6        30.16S
ALEXANDER CITY CLOUDY    52  46  78 NW7       30.16R
AUBURN         CLOUDY    50  45  83 NW8       30.15S
$$

ALZ051>064-080400-
SOUTHWEST ALABAMA

CITY           SKY/WX    TMP DP  RH WIND       PRES   REMARKS
MOBILE         MOCLDY    56  50  80 CALM      30.16S
BROOKLEY FIELD CLOUDY    59  52  77 CALM      30.17R
EVERGREEN      CLEAR     46  44  93 CALM      30.17R FOG
$$

ALZ049-050-065>069-080400-
SOUTHEAST ALABAMA

CITY           SKY/WX    TMP DP  RH WIND       PRES   REMARKS
DOTHAN         PTCLDY    51  48  89 NW3       30.18S
OZARK          CLEAR     50  45  85 CALM      30.14S
TROY           CLOUDY    52  49  89 NW5       30.16S
EUFAULA        CLOUDY    54  48  80 CALM      30.13F
$$




USA.gov is the U.S. government's official web portal to all federal, state and local government web resources and services.